sat.trackr.live / text

‹ back to catalog

STARLINK-34552

NORAD 64731 · 2025-144H

PAYLOAD ACTIVE UNKNOWN

§ Identity

Operator
Country
US
Launch date
2025-07-02
Launch site
AFETR
Launch vehicle
Mass (kg)
RCS (m²)

Purposes: comms

External: N2YO · Heavens-Above · Gunter

§ Orbital elements

Epoch: 2026-09-20T12:36:47.706624Z

Period
93.85 min
Inclination
53.1605°
Eccentricity
0.0001110
Mean motion
15.34404749 rev/d
Perigee alt
461.9 km
Apogee alt
463.4 km
Semi-major
6,840.8 km
B*
7.9778e-4
RAAN
353.8131°
Arg perigee
89.6423°
Mean anomaly
270.4707°
Rev number
6,957

§ Raw data

STARLINK-345521 64731U 25144H   26263.52555216  .00026678  00000+0  79778-3 0  99962 64731  53.1605 353.8131 0001110  89.6423 270.4707 15.34404749 69577

JSON: /api/v1/satellites/64731 · /tle

For live sub-satellite position, see the globe view (requires WebGL).

§ Visibility from observer

Set your observer location to see the next 7 days of passes ≥ 10°. The values pass through the URL so the page stays shareable.

No JS? Fill the form by hand. The geolocation button needs JavaScript.